Location: Borojevi?i
(45.0486°N, 16.2297°E)
Time: 16:05:52
(UTC+00:00)

ADEOS II - Pass Details

Date: 08 August 2020
Orbit: 799 x 802 km, 98.5° (Epoch: 25 September)

Event Time Altitude Azimuth Distance (km) Brightness Sun altitude
Rises 23:45:47 0° 33° (NNE) 3,319 6.3 -28.3°
Reaches altitude 10° 23:49:41 10° 63° (ENE) 2,381 5.0 -28.2°
Maximum altitude 23:51:52 13° 87° (E) 2,202 4.5 -28.1°
Enters shadow 23:53:30 11° 106° (ESE) 2,299 4.4 -28.0°
